Location: Saint-Palais-sur-Mer
(45.6429°N, 1.0859°W)
Time: 00:05:54
(UTC+01:00)

Tiros 1 despin weight - Pass Details

Date: 14 February 2026
Orbit: 556 x 593 km, 48.2° (Epoch: 13 March)

Event Time Altitude Azimuth Distance (km) Brightness Sun altitude
Rises 17:55:44 0° 237° (WSW) 2,728 ? 4.7°
Reaches altitude 10° 17:57:59 10° 234° (SW) 1,833 ? 4.3°
Maximum altitude 18:02:07 62° 154° (SSE) 627 ? 3.7°
Drops below altitude 10° 18:06:15 10° 74° (ENE) 1,839 ? 3.0°
Sets 18:08:31 0° 71° (ENE) 2,738 ? 2.6°
